DRAGON CRS-22 (48831 NORAD) Tracking and Keplerian Element Data

This shows tracking and keplerian element data for the satellite.

Feedback or suggestion? Click here.




ElementValue
Catalog48831
NameDRAGON CRS-22
Epoch Orbit579
Epoch Day191.15380063
Epoch Year2021
RAAN228.5564
Inclination51.6394
Eccentricity0.0086979
Argument of Perigee82.8341
Mean Anonmoly29.9538
Mean Motion16.05293233
Decay Rate0.00118362
L11 48831U 21048A 21191.15380063 .00118362 11536-4 10000-3 0 9994
L22 48831 51.6394 228.5564 0086979 82.8341 29.9538 16.05293233 5792

Live tracking and technical data element details for DRAGON CRS-22 (NORAD 48831). DRAGON CRS-22 can be tracked NOW for your location showing map with azimuth and elevation plus other details from your city location.

Track the satellite on the map from your city or location and see movement details for azimuth, elevation, latitude, longitude, range, height, and movement on the map or in text.







IsCatalogInMostPopularTable: catalog: 48831, numindb: 17
Update: records affected: 1



GetName: 48831 DRAGON CRS-22

Hit Count: updated at: Tue, 03 Aug 2021 21:38:39 GMT